Tracking 19574 objects as of 16-Feb-2019
HD Live streaming from Space Station
objects crossing your sky now

COSMOS 413

Track COSMOS 413 now!
10-day predictions
COSMOS 413 is classified as:


NORAD ID: 5212
Int'l Code: 1971-041C
Perigee: 1,480.4 km
Apogee: 1,514.8 km
Inclination: 74.0 °
Period: 115.8 minutes
Semi major axis: 7868 km
RCS: 0.726 m2 (medium)
Launch date: May 7, 1971
Source: Commonwealth of Independent States (former USSR) (CIS)
Launch site: PLESETSK MISSILE AND SPACE COMPLEX (PKMTR)
aabbcc
Your satellite tracking list
Your tracking list is empty




NASA's NSSDC Master Catalog

Two Line Element Set (TLE):
1  5212U 71041C   19046.87216215 -.00000018 +00000-0 -16160-4 0  9994
2  5212 074.0146 189.0388 0021887 213.6579 304.1010 12.43812468169442
Source of the keplerian elements: AFSPC